Location: Ch�teau-Arnoux
(44.0814°N, 6.0027°E)
Time: 07:26:59
(UTC+00:00)

Cosmos 158 Rocket - Pass Details

Date: 15 November 2019
Orbit: 699 x 793 km, 74.0° (Epoch: 06 December)

Event Time Altitude Azimuth Distance (km) Brightness Sun altitude
Exits shadow 04:17:54 19° 351° (N) 1,669 5.6 -23.8°
Maximum altitude 04:21:21 59° 66° (ENE) 819 4.3 -23.2°
Drops below altitude 10° 04:26:10 10° 146° (SSE) 2,162 6.8 -22.3°
Sets 04:28:29 0° 151° (SSE) 3,072 7.6 -21.9°
